,,Stat6,,Stat2,,Stat8,,Stat9,,Stat10,,Wind1,,Wind1,
time,status,PA1M_AVG,status,PR1M_SUM,status,RH1M_AVG,status,SR1M_AVG,status,TA1M_AVG,status,W1dAve1m,status,W1sAve1m,
2004-11-01, 00:00:00,VALID,916.558,VALID,0,VALID,100,VALID,-0.0339617,VALID,19.7877,VALID,77,VALID,0.679869,
2004-11-01, 00:01:00,VALID,916.577,VALID,0,VALID,100,VALID,-0.0169808,VALID,19.7839,VALID,69,VALID,0.579901,
2004-11-01, 00:02:01,VALID,916.582,VALID,0,VALID,100,VALID,-0.0339617,VALID,19.7676,VALID,65,VALID,0.540264,
2004-11-01, 00:03:01,VALID,916.602,VALID,0,VALID,100,VALID,-0.0339617,VALID,19.7683,VALID,74,VALID,0.496271,
2004-11-01, 00:04:00,VALID,916.62,VALID,0,VALID,100,VALID,-0.0169808,VALID,19.7618,VALID,78,VALID,0.398958,
2004-11-01, 00:05:00,VALID,916.627,VALID,0,VALID,100,VALID,0,VALID,19.7355,VALID,71,VALID,0.551736,
2004-11-01, 00:06:00,VALID,916.625,VALID,0,VALID,100,VALID,-0.0339617,VALID,19.7618,VALID,48,VALID,0.546165,
2004-11-01, 00:07:01,VALID,916.616,VALID,0,VALID,100,VALID,-0.0169808,VALID,19.7842,VALID,44,VALID,0.552083,
2004-11-01, 00:08:00,VALID,916.602,VALID,0,VALID,100,VALID,0,VALID,19.7775,VALID,44,VALID,0.212426,
2004-11-01, 00:09:01,VALID,916.605,VALID,0,VALID,100,VALID,-0.0169808,VALID,19.7974,VALID,44,VALID,0.0399709,
2004-11-01, 00:10:01,VALID,916.599,VALID,0,VALID,100,VALID,-0.0169808,VALID,19.8006,VALID,44,VALID,0,
2004-11-01, 00:11:00,VALID,916.605,VALID,0,VALID,100,VALID,-0.0169808,VALID,19.7974,VALID,44,VALID,0,
2004-11-01, 00:12:00,VALID,916.603,VALID,0,VALID,100,VALID,-0.0339617,VALID,19.7777,VALID,44,VALID,0,
2004-11-01, 00:13:01,VALID,916.59,VALID,0,VALID,100,VALID,-0.0339617,VALID,19.7656,VALID,44,VALID,0,
2004-11-01, 00:14:00,VALID,916.581,VALID,0,VALID,100,VALID,-0.0339617,VALID,19.7358,VALID,44,VALID,0,
2004-11-01, 00:15:01,VALID,916.56,VALID,0,VALID,100,VALID,-0.0339617,VALID,19.7325,VALID,44,VALID,0,
2004-11-01, 00:16:01,VALID,916.523,VALID,0,VALID,100,VALID,-0.0169808,VALID,19.7266,VALID,44,VALID,0,
2004-11-01, 00:17:01,VALID,916.491,VALID,0,VALID,100,VALID,0,VALID,19.7102,VALID,44,VALID,0,
2004-11-01, 00:18:00,VALID,916.458,VALID,0,VALID,100,VALID,-0.0339617,VALID,19.6935,VALID,44,VALID,0,
2004-11-01, 00:19:00,VALID,916.414,VALID,0,VALID,100,VALID,0,VALID,19.6973,VALID,47,VALID,0,
2004-11-01, 00:20:00,VALID,916.386,VALID,0,VALID,100,VALID,-0.0169808,VALID,19.6838,VALID,80,VALID,0.0236235,
2004-11-01, 00:21:00,VALID,916.364,VALID,0,VALID,100,VALID,-0.0679233,VALID,19.6749,VALID,81,VALID,0.106424,
2004-11-01, 00:22:01,VALID,916.344,VALID,0,VALID,100,VALID,0,VALID,19.6682,VALID,83,VALID,0,
2004-11-01, 00:23:01,VALID,916.33,VALID,0,VALID,100,VALID,-0.0339617,VALID,19.6453,VALID,83,VALID,0,
2004-11-01, 00:24:00,VALID,916.306,VALID,0,VALID,100,VALID,-0.0509425,VALID,19.626,VALID,83,VALID,0.0493608,
2004-11-01, 00:25:00,VALID,916.279,VALID,0,VALID,100,VALID,-0.0339617,VALID,19.623,VALID,82,VALID,0.354421,
2004-11-01, 00:26:00,VALID,916.26,VALID,0,VALID,100,VALID,0,VALID,19.6031,VALID,82,VALID,0.215298,
2004-11-01, 00:27:00,VALID,916.256,VALID,0,VALID,100,VALID,0,VALID,19.5867,VALID,82,VALID,0.0622997,
2004-11-01, 00:28:00,VALID,916.243,VALID,0,VALID,100,VALID,-0.0339617,VALID,19.5875,VALID,82,VALID,0,
2004-11-01, 00:29:00,VALID,916.261,VALID,0,VALID,100,VALID,-0.0339617,VALID,19.5681,VALID,82,VALID,0,
2004-11-01, 00:30:00,VALID,916.252,VALID,0,VALID,100,VALID,0,VALID,19.5616,VALID,82,VALID,0,
2004-11-01, 00:31:00,VALID,916.249,VALID,0,VALID,100,VALID,0,VALID,19.5552,VALID,82,VALID,0,
2004-11-01, 00:32:01,VALID,916.259,VALID,0,VALID,100,VALID,0,VALID,19.5648,VALID,97,VALID,0.220203,
2004-11-01, 00:33:00,VALID,916.243,VALID,0,VALID,100,VALID,-0.0169808,VALID,19.5711,VALID,184,VALID,0.589666,
2004-11-01, 00:34:01,VALID,916.226,VALID,0,VALID,100,VALID,0,VALID,19.581,VALID,205,VALID,0.564215,
2004-11-01, 00:35:00,VALID,916.221,VALID,0,VALID,100,VALID,-0.0339617,VALID,19.5902,VALID,214,VALID,0.432049,
2004-11-01, 00:36:00,VALID,916.218,VALID,0,VALID,100,VALID,-0.0339617,VALID,19.6103,VALID,198,VALID,0.657031,
2004-11-01, 00:37:01,VALID,916.217,VALID,0,VALID,100,VALID,-0.0339617,VALID,19.6036,VALID,195,VALID,0.547602,
2004-11-01, 00:38:00,VALID,916.226,VALID,0,VALID,100,VALID,-0.0169808,VALID,19.6038,VALID,191,VALID,0.60883,
2004-11-01, 00:39:01,VALID,916.228,VALID,0,VALID,100,VALID,0,VALID,19.6006,VALID,205,VALID,0.704985,
2004-11-01, 00:40:01,VALID,916.225,VALID,0,VALID,100,VALID,0,VALID,19.5902,VALID,179,VALID,0.628634,
2004-11-01, 00:41:00,VALID,916.208,VALID,0,VALID,100,VALID,-0.0169808,VALID,19.5939,VALID,189,VALID,0.626953,
2004-11-01, 00:42:00,VALID,916.207,VALID,0,VALID,100,VALID,-0.0169808,VALID,19.5907,VALID,208,VALID,0.716797,
2004-11-01, 00:43:00,VALID,916.177,VALID,0,VALID,100,VALID,-0.0169808,VALID,19.578,VALID,224,VALID,0.316229,
2004-11-01, 00:44:00,VALID,916.167,VALID,0,VALID,100,VALID,-0.0339617,VALID,19.5753,VALID,208,VALID,0.518555,
2004-11-01, 00:45:00,VALID,916.149,VALID,0,VALID,100,VALID,0,VALID,19.5847,VALID,255,VALID,0.360742,
2004-11-01, 00:46:01,VALID,916.138,VALID,0,VALID,100,VALID,-0.0169808,VALID,19.5648,VALID,174,VALID,0.403392,
2004-11-01, 00:47:00,VALID,916.121,VALID,0,VALID,100,VALID,0,VALID,19.5648,VALID,194,VALID,0.375182,
2004-11-01, 00:48:01,VALID,916.115,VALID,0,VALID,100,VALID,0,VALID,19.5646,VALID,229,VALID,0.220084,
2004-11-01, 00:49:00,VALID,916.099,VALID,0,VALID,100,VALID,-0.0169808,VALID,19.5708,VALID,229,VALID,0.21076,
2004-11-01, 00:50:00,VALID,916.098,VALID,0,VALID,100,VALID,-0.0339617,VALID,19.5641,VALID,183,VALID,0.33133,
2004-11-01, 00:51:00,VALID,916.107,VALID,0,VALID,100,VALID,-0.0169808,VALID,19.5681,VALID,181,VALID,0.439732,
2004-11-01, 00:52:00,VALID,916.112,VALID,0,VALID,100,VALID,-0.0169808,VALID,19.5517,VALID,180,VALID,0.404018,
2004-11-01, 00:53:00,VALID,916.116,VALID,0,VALID,100,VALID,0,VALID,19.5519,VALID,179,VALID,0.51734,
2004-11-01, 00:54:01,VALID,916.116,VALID,0,VALID,100,VALID,-0.0169808,VALID,19.539,VALID,170,VALID,0.691679,
2004-11-01, 00:55:00,VALID,916.113,VALID,0,VALID,100,VALID,0,VALID,19.5395,VALID,178,VALID,0.548399,
2004-11-01, 00:56:00,VALID,916.113,VALID,0,VALID,100,VALID,0,VALID,19.5293,VALID,165,VALID,0.579268,
2004-11-01, 00:57:00,VALID,916.116,VALID,0,VALID,100,VALID,-0.0169808,VALID,19.5256,VALID,163,VALID,0.202567,
2004-11-01, 00:58:00,VALID,916.112,VALID,0,VALID,100,VALID,-0.0169808,VALID,19.5291,VALID,149,VALID,0.33125,
2004-11-01, 00:59:00,VALID,916.118,VALID,0,VALID,100,VALID,0,VALID,19.5261,VALID,149,VALID,0.159489,
2004-11-01, 01:00:00,VALID,916.105,VALID,0,VALID,100,VALID,0.0169808,VALID,19.5229,VALID,149,VALID,0.139737,
2004-11-01, 01:01:00,VALID,916.093,VALID,0,VALID,100,VALID,0,VALID,19.5159,VALID,148,VALID,0.450335,
2004-11-01, 01:02:00,VALID,916.086,VALID,0,VALID,100,VALID,0,VALID,19.5261,VALID,147,VALID,0.132457,
2004-11-01, 01:03:00,VALID,916.072,VALID,0,VALID,100,VALID,-0.0169808,VALID,19.5194,VALID,147,VALID,0.0219131,
2004-11-01, 01:04:00,VALID,916.051,VALID,0,VALID,100,VALID,0.0169808,VALID,19.509,VALID,147,VALID,0.0517805,
2004-11-01, 01:05:00,VALID,916.03,VALID,0,VALID,100,VALID,0.0169808,VALID,19.5191,VALID,147,VALID,0,
2004-11-01, 01:06:00,VALID,916.006,VALID,0,VALID,100,VALID,0.0169808,VALID,19.5194,VALID,147,VALID,0,
2004-11-01, 01:07:00,VALID,915.971,VALID,0,VALID,100,VALID,0.0169808,VALID,19.5122,VALID,147,VALID,0,
2004-11-01, 01:08:00,VALID,915.969,VALID,0,VALID,100,VALID,0.0169808,VALID,19.5162,VALID,147,VALID,0,
2004-11-01, 01:09:00,VALID,915.954,VALID,0,VALID,100,VALID,0.0169808,VALID,19.5122,VALID,147,VALID,0,
2004-11-01, 01:10:00,VALID,915.936,VALID,0,VALID,100,VALID,0.0339617,VALID,19.5191,VALID,147,VALID,0.0947917,
2004-11-01, 01:11:01,VALID,915.932,VALID,0,VALID,100,VALID,0.0339617,VALID,19.5122,VALID,147,VALID,0.211124,
2004-11-01, 01:12:01,VALID,915.937,VALID,0,VALID,100,VALID,0.0509425,VALID,19.5259,VALID,147,VALID,0.265278,
2004-11-01, 01:13:00,VALID,915.93,VALID,0,VALID,100,VALID,0,VALID,19.5348,VALID,147,VALID,0.167187,
2004-11-01, 01:14:00,VALID,915.937,VALID,0,VALID,100,VALID,0.0169808,VALID,19.5542,VALID,146,VALID,0.234581,
2004-11-01, 01:15:01,VALID,915.918,VALID,0,VALID,100,VALID,0,VALID,19.5442,VALID,130,VALID,0.358994,
2004-11-01, 01:16:01,VALID,915.897,VALID,0,VALID,100,VALID,0.0169808,VALID,19.5251,VALID,124,VALID,0.242569,
2004-11-01, 01:17:00,VALID,915.882,VALID,0,VALID,100,VALID,0.0169808,VALID,19.499,VALID,124,VALID,0.0208939,
2004-11-01, 01:18:01,VALID,915.872,VALID,0,VALID,100,VALID,0,VALID,19.4968,VALID,124,VALID,0,
2004-11-01, 01:19:01,VALID,915.858,VALID,0,VALID,100,VALID,0.0169808,VALID,19.4705,VALID,124,VALID,0,
2004-11-01, 01:20:01,VALID,915.857,VALID,0,VALID,100,VALID,0,VALID,19.4444,VALID,124,VALID,0,
2004-11-01, 01:21:01,VALID,915.843,VALID,0,VALID,100,VALID,0,VALID,19.4484,VALID,124,VALID,0.122275,
2004-11-01, 01:22:01,VALID,915.83,VALID,0,VALID,100,VALID,0.0509425,VALID,19.4379,VALID,118,VALID,0.464666,
2004-11-01, 01:23:01,VALID,915.819,VALID,0,VALID,100,VALID,0,VALID,19.4317,VALID,53,VALID,0.697027,
2004-11-01, 01:24:01,VALID,915.831,VALID,0,VALID,100,VALID,0.0169808,VALID,19.4123,VALID,58,VALID,1.00937,
2004-11-01, 01:25:01,VALID,915.816,VALID,0,VALID,100,VALID,-0.0169808,VALID,19.3865,VALID,58,VALID,0.948661,
2004-11-01, 01:26:01,VALID,915.807,VALID,0,VALID,100,VALID,0,VALID,19.3736,VALID,58,VALID,0.875391,
2004-11-01, 01:27:01,VALID,915.796,VALID,0,VALID,100,VALID,0,VALID,19.3547,VALID,59,VALID,0.957403,
2004-11-01, 01:28:01,VALID,915.79,VALID,0,VALID,100,VALID,0,VALID,19.3286,VALID,54,VALID,0.998633,
2004-11-01, 01:29:00,VALID,915.778,VALID,0,VALID,100,VALID,0,VALID,19.306,VALID,47,VALID,1.05909,
2004-11-01, 01:30:01,VALID,915.754,VALID,0,VALID,100,VALID,0.0169808,VALID,19.2968,VALID,46,VALID,1.39565,
2004-11-01, 01:31:01,VALID,915.717,VALID,0,VALID,100,VALID,0.0339617,VALID,19.2961,VALID,44,VALID,1.49538,
2004-11-01, 01:32:01,VALID,915.699,VALID,0,VALID,100,VALID,0.0679233,VALID,19.2929,VALID,41,VALID,1.49293,
2004-11-01, 01:33:01,VALID,915.656,VALID,0,VALID,100,VALID,0,VALID,19.3122,VALID,47,VALID,1.46532,
2004-11-01, 01:34:00,VALID,915.629,VALID,0,VALID,100,VALID,0,VALID,19.3483,VALID,51,VALID,1.40856,
2004-11-01, 01:35:00,VALID,915.596,VALID,0,VALID,100,VALID,0,VALID,19.3741,VALID,37,VALID,0.821646,
2004-11-01, 01:36:01,VALID,915.556,VALID,0,VALID,100,VALID,0.0339617,VALID,19.3835,VALID,37,VALID,0.918164,
2004-11-01, 01:37:01,VALID,915.521,VALID,0,VALID,100,VALID,-0.0169808,VALID,19.3671,VALID,40,VALID,0.730015,
2004-11-01, 01:38:01,VALID,915.484,VALID,0,VALID,100,VALID,-0.0849042,VALID,19.3654,VALID,39,VALID,0.694618,
2004-11-01, 01:39:01,VALID,915.454,VALID,0,VALID,100,VALID,-0.0509425,VALID,19.3587,VALID,25,VALID,0.693314,
2004-11-01, 01:40:01,VALID,915.441,VALID,0,VALID,100,VALID,-0.101885,VALID,19.3718,VALID,17,VALID,0.848011,
2004-11-01, 01:41:01,VALID,915.444,VALID,0,VALID,100,VALID,-0.0849042,VALID,19.3654,VALID,11,VALID,0.87691,
2004-11-01, 01:42:01,VALID,915.451,VALID,0,VALID,100,VALID,-0.0679233,VALID,19.349,VALID,5,VALID,0.90968,
2004-11-01, 01:43:01,VALID,915.452,VALID,0,VALID,100,VALID,-0.0849042,VALID,19.3361,VALID,5,VALID,0.71875,
2004-11-01, 01:44:01,VALID,915.467,VALID,0,VALID,100,VALID,-0.0169808,VALID,19.3462,VALID,5,VALID,0.548328,
2004-11-01, 01:45:01,VALID,915.472,VALID,0,VALID,100,VALID,-0.0849042,VALID,19.3167,VALID,5,VALID,0.552083,
2004-11-01, 01:46:01,VALID,915.478,VALID,0,VALID,100,VALID,-0.0509425,VALID,19.3269,VALID,5,VALID,0.668155,
2004-11-01, 01:47:01,VALID,915.481,VALID,0,VALID,100,VALID,-0.0339617,VALID,19.3231,VALID,5,VALID,0.509859,
2004-11-01, 01:48:01,VALID,915.486,VALID,0,VALID,100,VALID,-0.0339617,VALID,19.3497,VALID,5,VALID,0.366279,
2004-11-01, 01:49:01,VALID,915.485,VALID,0,VALID,100,VALID,-0.0679233,VALID,19.3492,VALID,5,VALID,0.285069,
2004-11-01, 01:50:01,VALID,915.486,VALID,0,VALID,100,VALID,-0.0339617,VALID,19.3554,VALID,4,VALID,0,
2004-11-01, 01:51:01,VALID,915.495,VALID,0,VALID,100,VALID,-0.0509425,VALID,19.3621,VALID,4,VALID,0,
2004-11-01, 01:52:01,VALID,915.508,VALID,0,VALID,100,VALID,-0.0509425,VALID,19.378,VALID,4,VALID,0,
2004-11-01, 01:53:01,VALID,915.516,VALID,0,VALID,100,VALID,-0.0339617,VALID,19.3845,VALID,4,VALID,0,
2004-11-01, 01:54:01,VALID,915.521,VALID,0,VALID,100,VALID,-0.0169808,VALID,19.3845,VALID,4,VALID,0,
2004-11-01, 01:55:01,VALID,915.549,VALID,0,VALID,100,VALID,-0.0679233,VALID,19.3875,VALID,4,VALID,0,
2004-11-01, 01:56:01,VALID,915.558,VALID,0,VALID,100,VALID,-0.0339617,VALID,19.4009,VALID,4,VALID,0,
2004-11-01, 01:57:01,VALID,915.565,VALID,0,VALID,100,VALID,-0.0339617,VALID,19.4004,VALID,4,VALID,0,
2004-11-01, 01:58:01,VALID,915.579,VALID,0,VALID,100,VALID,-0.0509425,VALID,19.4034,VALID,4,VALID,0,
2004-11-01, 01:59:01,VALID,915.589,VALID,0,VALID,100,VALID,-0.101885,VALID,19.4106,VALID,4,VALID,0,
2004-11-01, 02:00:01,VALID,915.585,VALID,0,VALID,100,VALID,-0.0849042,VALID,19.4101,VALID,4,VALID,0,
2004-11-01, 02:01:01,VALID,915.586,VALID,0,VALID,100,VALID,-0.0339617,VALID,19.4267,VALID,4,VALID,0,
2004-11-01, 02:02:01,VALID,915.586,VALID,0,VALID,100,VALID,0,VALID,19.4357,VALID,4,VALID,0,
2004-11-01, 02:03:01,VALID,915.57,VALID,0,VALID,100,VALID,-0.0509425,VALID,19.4456,VALID,4,VALID,0,
2004-11-01, 02:04:01,VALID,915.574,VALID,0,VALID,100,VALID,-0.0509425,VALID,19.462,VALID,4,VALID,0,
2004-11-01, 02:05:00,VALID,915.576,VALID,0,VALID,100,VALID,-0.0339617,VALID,19.4747,VALID,4,VALID,0,
2004-11-01, 02:06:00,VALID,915.583,VALID,0,VALID,100,VALID,-0.0169808,VALID,19.4913,VALID,4,VALID,0,
2004-11-01, 02:07:00,VALID,915.588,VALID,0,VALID,100,VALID,0,VALID,19.4553,VALID,13,VALID,0.0291193,
2004-11-01, 02:08:00,VALID,915.579,VALID,0,VALID,100,VALID,-0.0339617,VALID,19.4364,VALID,60,VALID,0.520461,
2004-11-01, 02:09:00,VALID,915.568,VALID,0,VALID,100,VALID,-0.0509425,VALID,19.4228,VALID,60,VALID,0.671875,
2004-11-01, 02:10:00,VALID,915.56,VALID,0,VALID,100,VALID,-0.0339617,VALID,19.4526,VALID,60,VALID,0.610863,
2004-11-01, 02:11:00,VALID,915.553,VALID,0,VALID,100,VALID,-0.0339617,VALID,19.4784,VALID,60,VALID,0.55506,
2004-11-01, 02:12:00,VALID,915.531,VALID,0,VALID,100,VALID,-0.0679233,VALID,19.4846,VALID,60,VALID,0.376143,
2004-11-01, 02:13:00,VALID,915.529,VALID,0,VALID,100,VALID,-0.0679233,VALID,19.4784,VALID,60,VALID,0.231213,
2004-11-01, 02:14:00,VALID,915.501,VALID,0,VALID,100,VALID,-0.0339617,VALID,19.4779,VALID,60,VALID,0.264915,
2004-11-01, 02:15:00,VALID,915.489,VALID,0,VALID,100,VALID,-0.0509425,VALID,19.4943,VALID,60,VALID,0.0149148,
2004-11-01, 02:16:00,VALID,915.459,VALID,0,VALID,100,VALID,-0.0509425,VALID,19.4941,VALID,60,VALID,0,
2004-11-01, 02:17:00,VALID,915.432,VALID,0,VALID,100,VALID,-0.0849042,VALID,19.5012,VALID,60,VALID,0,
2004-11-01, 02:18:00,VALID,915.416,VALID,0,VALID,100,VALID,-0.0849042,VALID,19.5015,VALID,60,VALID,0,
2004-11-01, 02:19:00,VALID,915.4,VALID,0,VALID,100,VALID,-0.0679233,VALID,19.4784,VALID,60,VALID,0,
2004-11-01, 02:20:00,VALID,915.4,VALID,0,VALID,100,VALID,-0.0849042,VALID,19.4881,VALID,60,VALID,0,
2004-11-01, 02:21:00,VALID,915.401,VALID,0,VALID,100,VALID,-0.101885,VALID,19.4913,VALID,60,VALID,0,
2004-11-01, 02:22:00,VALID,915.402,VALID,0,VALID,100,VALID,-0.0679233,VALID,19.498,VALID,60,VALID,0,
2004-11-01, 02:23:00,VALID,915.398,VALID,0,VALID,100,VALID,-0.0679233,VALID,19.4943,VALID,60,VALID,0,
2004-11-01, 02:24:00,VALID,915.404,VALID,0,VALID,100,VALID,-0.0849042,VALID,19.5008,VALID,60,VALID,0,
2004-11-01, 02:25:00,VALID,915.39,VALID,0,VALID,100,VALID,-0.101885,VALID,19.5042,VALID,60,VALID,0,
2004-11-01, 02:26:00,VALID,915.39,VALID,0,VALID,100,VALID,-0.0169808,VALID,19.5137,VALID,60,VALID,0,
2004-11-01, 02:27:00,VALID,915.379,VALID,0,VALID,100,VALID,-0.0509425,VALID,19.5104,VALID,60,VALID,0,
2004-11-01, 02:28:00,VALID,915.349,VALID,0,VALID,100,VALID,-0.0339617,VALID,19.5045,VALID,60,VALID,0,
2004-11-01, 02:29:00,VALID,915.339,VALID,0,VALID,100,VALID,-0.0849042,VALID,19.5008,VALID,60,VALID,0,
2004-11-01, 02:30:00,VALID,915.319,VALID,0,VALID,100,VALID,-0.0509425,VALID,19.4973,VALID,60,VALID,0,
2004-11-01, 02:31:00,VALID,915.295,VALID,0,VALID,100,VALID,-0.0679233,VALID,19.5147,VALID,60,VALID,0,
2004-11-01, 02:32:00,VALID,915.281,VALID,0,VALID,100,VALID,-0.0509425,VALID,19.5201,VALID,60,VALID,0,
2004-11-01, 02:33:00,VALID,915.247,VALID,0,VALID,100,VALID,-0.0849042,VALID,19.5492,VALID,60,VALID,0,
2004-11-01, 02:34:00,VALID,915.232,VALID,0,VALID,100,VALID,-0.0849042,VALID,19.5524,VALID,60,VALID,0,
2004-11-01, 02:35:00,VALID,915.193,VALID,0,VALID,100,VALID,-0.0679233,VALID,19.543,VALID,60,VALID,0,
2004-11-01, 02:36:00,VALID,915.16,VALID,0,VALID,100,VALID,-0.0339617,VALID,19.5167,VALID,60,VALID,0,
2004-11-01, 02:37:00,VALID,915.146,VALID,0,VALID,100,VALID,-0.0849042,VALID,19.5169,VALID,57,VALID,0,
2004-11-01, 02:38:00,VALID,915.125,VALID,0,VALID,100,VALID,-0.0679233,VALID,19.5231,VALID,56,VALID,0,
2004-11-01, 02:39:00,VALID,915.11,VALID,0,VALID,100,VALID,-0.0679233,VALID,19.5402,VALID,56,VALID,0,
2004-11-01, 02:40:00,VALID,915.102,VALID,0,VALID,100,VALID,-0.0849042,VALID,19.5465,VALID,55,VALID,0,
2004-11-01, 02:41:00,VALID,915.086,VALID,0,VALID,100,VALID,-0.0509425,VALID,19.5363,VALID,25,VALID,0.32492,
2004-11-01, 02:42:00,VALID,915.063,VALID,0,VALID,100,VALID,-0.101885,VALID,19.5296,VALID,24,VALID,0.0949653,
2004-11-01, 02:43:00,VALID,915.046,VALID,0,VALID,100,VALID,-0.0849042,VALID,19.5167,VALID,3,VALID,0.470958,
2004-11-01, 02:44:00,VALID,915.032,VALID,0,VALID,100,VALID,-0.0509425,VALID,19.4973,VALID,337,VALID,0.347565,
2004-11-01, 02:45:00,VALID,915.012,VALID,0,VALID,100,VALID,-0.0509425,VALID,19.4948,VALID,337,VALID,0.0147569,
2004-11-01, 02:46:00,VALID,915.011,VALID,0,VALID,100,VALID,0,VALID,19.4739,VALID,337,VALID,0.000952744,
2004-11-01, 02:47:00,VALID,914.99,VALID,0.2,VALID,100,VALID,0,VALID,19.4747,VALID,337,VALID,0.0308689,
2004-11-01, 02:48:00,VALID,914.98,VALID,0,VALID,100,VALID,0,VALID,19.4712,VALID,337,VALID,0,
2004-11-01, 02:49:00,VALID,914.952,VALID,0,VALID,100,VALID,0,VALID,19.4806,VALID,337,VALID,0,
2004-11-01, 02:50:00,VALID,914.939,VALID,0,VALID,100,VALID,0,VALID,19.4936,VALID,337,VALID,0,
2004-11-01, 02:51:00,VALID,914.924,VALID,0,VALID,100,VALID,-0.0169808,VALID,19.4873,VALID,337,VALID,0,
2004-11-01, 02:52:00,VALID,914.91,VALID,0,VALID,100,VALID,0.0169808,VALID,19.4742,VALID,337,VALID,0,
2004-11-01, 02:53:00,VALID,914.893,VALID,0,VALID,100,VALID,0.0169808,VALID,19.4906,VALID,337,VALID,0,
2004-11-01, 02:54:00,VALID,914.876,VALID,0,VALID,100,VALID,0,VALID,19.4774,VALID,337,VALID,0,
2004-11-01, 02:55:00,VALID,914.877,VALID,0,VALID,100,VALID,0.0169808,VALID,19.4871,VALID,249,VALID,0.333854,
2004-11-01, 02:56:00,VALID,914.858,VALID,0,VALID,100,VALID,0,VALID,19.4871,VALID,237,VALID,0.164595,
2004-11-01, 02:57:00,VALID,914.84,VALID,0,VALID,100,VALID,0.0169808,VALID,19.4774,VALID,220,VALID,0.306127,
2004-11-01, 02:58:00,VALID,914.837,VALID,0,VALID,100,VALID,0.0169808,VALID,19.4747,VALID,189,VALID,0.307292,
2004-11-01, 02:59:00,VALID,914.81,VALID,0,VALID,100,VALID,0,VALID,19.4414,VALID,189,VALID,0.125,
2004-11-01, 03:00:00,VALID,914.812,VALID,0,VALID,100,VALID,0.0169808,VALID,19.4354,VALID,189,VALID,0,
2004-11-01, 03:01:00,VALID,914.789,VALID,0,VALID,100,VALID,-0.0169808,VALID,19.4295,VALID,189,VALID,0,
2004-11-01, 03:02:00,VALID,914.76,VALID,0,VALID,100,VALID,0,VALID,19.4325,VALID,189,VALID,0,
2004-11-01, 03:03:00,VALID,914.734,VALID,0,VALID,100,VALID,0,VALID,19.423,VALID,189,VALID,0,
2004-11-01, 03:04:00,VALID,914.708,VALID,0,VALID,100,VALID,0,VALID,19.4098,VALID,189,VALID,0,
2004-11-01, 03:05:00,VALID,914.68,VALID,0,VALID,100,VALID,-0.0339617,VALID,19.4098,VALID,188,VALID,0.219444,
2004-11-01, 03:06:00,VALID,914.65,VALID,0,VALID,100,VALID,0,VALID,19.4004,VALID,183,VALID,0.458705,
2004-11-01, 03:07:00,VALID,914.631,VALID,0,VALID,100,VALID,-0.0169808,VALID,19.3942,VALID,175,VALID,0.574041,
2004-11-01, 03:08:00,VALID,914.6,VALID,0,VALID,100,VALID,-0.0169808,VALID,19.3676,VALID,172,VALID,0.588986,
2004-11-01, 03:09:00,VALID,914.592,VALID,0,VALID,100,VALID,0,VALID,19.355,VALID,171,VALID,0.481326,
2004-11-01, 03:10:00,VALID,914.562,VALID,0,VALID,100,VALID,0.0169808,VALID,19.3323,VALID,156,VALID,0.370703,
2004-11-01, 03:11:00,VALID,914.551,VALID,0,VALID,100,VALID,0,VALID,19.3326,VALID,139,VALID,0.300872,
2004-11-01, 03:12:00,VALID,914.544,VALID,0,VALID,100,VALID,0,VALID,19.3462,VALID,136,VALID,0.224805,
2004-11-01, 03:13:00,VALID,914.534,VALID,0,VALID,100,VALID,-0.0169808,VALID,19.3197,VALID,135,VALID,0.252548,
2004-11-01, 03:14:00,VALID,914.538,VALID,0,VALID,100,VALID,-0.0169808,VALID,19.313,VALID,135,VALID,0.00208333,
2004-11-01, 03:15:00,VALID,914.539,VALID,0,VALID,100,VALID,0,VALID,19.2966,VALID,135,VALID,0,
2004-11-01, 03:16:00,VALID,914.528,VALID,0,VALID,100,VALID,0,VALID,19.3063,VALID,135,VALID,0,
2004-11-01, 03:17:00,VALID,914.541,VALID,0,VALID,100,VALID,-0.0169808,VALID,19.31,VALID,126,VALID,0.160065,
2004-11-01, 03:18:00,VALID,914.541,VALID,0,VALID,100,VALID,-0.0169808,VALID,19.3164,VALID,118,VALID,0.207465,
2004-11-01, 03:19:00,VALID,914.529,VALID,0,VALID,100,VALID,0,VALID,19.3194,VALID,118,VALID,0.00334821,
2004-11-01, 03:20:00,VALID,914.52,VALID,0,VALID,100,VALID,0,VALID,19.3162,VALID,118,VALID,0,
2004-11-01, 03:21:00,VALID,914.516,VALID,0,VALID,100,VALID,0.0169808,VALID,19.3291,VALID,118,VALID,0,
2004-11-01, 03:22:00,VALID,914.489,VALID,0,VALID,100,VALID,0,VALID,19.3286,VALID,118,VALID,0,
2004-11-01, 03:23:00,VALID,914.477,VALID,0,VALID,100,VALID,0,VALID,19.352,VALID,118,VALID,0,
2004-11-01, 03:24:00,VALID,914.461,VALID,0,VALID,100,VALID,0,VALID,19.3584,VALID,118,VALID,0,
2004-11-01, 03:25:00,VALID,914.458,VALID,0,VALID,100,VALID,0,VALID,19.3386,VALID,118,VALID,0,
2004-11-01, 03:26:00,VALID,914.451,VALID,0,VALID,100,VALID,0,VALID,19.3416,VALID,118,VALID,0,
2004-11-01, 03:27:00,VALID,914.458,VALID,0,VALID,100,VALID,0,VALID,19.3383,VALID,118,VALID,0,
2004-11-01, 03:28:00,VALID,914.473,VALID,0,VALID,100,VALID,-0.0169808,VALID,19.3525,VALID,117,VALID,0.286111,
2004-11-01, 03:29:00,VALID,914.493,VALID,0,VALID,100,VALID,-0.0169808,VALID,19.3423,VALID,69,VALID,0.664864,
2004-11-01, 03:30:00,VALID,914.515,VALID,0,VALID,100,VALID,0,VALID,19.3227,VALID,59,VALID,0.672619,
2004-11-01, 03:31:00,VALID,914.531,VALID,0,VALID,100,VALID,0,VALID,19.3127,VALID,59,VALID,0.793324,
2004-11-01, 03:32:00,VALID,914.557,VALID,0,VALID,100,VALID,-0.0169808,VALID,19.2968,VALID,60,VALID,0.61044,
2004-11-01, 03:33:00,VALID,914.574,VALID,0,VALID,100,VALID,0,VALID,19.2871,VALID,61,VALID,0.743963,
2004-11-01, 03:34:00,VALID,914.578,VALID,0,VALID,100,VALID,0,VALID,19.2484,VALID,62,VALID,0.426781,
2004-11-01, 03:35:00,VALID,914.602,VALID,0,VALID,100,VALID,0,VALID,19.2551,VALID,63,VALID,0.18968,
2004-11-01, 03:36:00,VALID,914.601,VALID,0,VALID,100,VALID,0,VALID,19.2486,VALID,63,VALID,0.337271,
2004-11-01, 03:37:00,VALID,914.618,VALID,0,VALID,100,VALID,0.0169808,VALID,19.2452,VALID,63,VALID,0.0757631,
2004-11-01, 03:38:00,VALID,914.623,VALID,0,VALID,100,VALID,-0.0169808,VALID,19.2457,VALID,63,VALID,0.334794,
2004-11-01, 03:39:00,VALID,914.637,VALID,0,VALID,100,VALID,0,VALID,19.2385,VALID,63,VALID,0.270064,
2004-11-01, 03:40:00,VALID,914.623,VALID,0,VALID,100,VALID,0,VALID,19.2454,VALID,63,VALID,0.0394345,
2004-11-01, 03:41:00,VALID,914.617,VALID,0,VALID,100,VALID,0,VALID,19.2452,VALID,63,VALID,0,
2004-11-01, 03:42:00,VALID,914.609,VALID,0,VALID,100,VALID,0.0169808,VALID,19.2546,VALID,65,VALID,0.325335,
2004-11-01, 03:43:00,VALID,914.605,VALID,0,VALID,100,VALID,0,VALID,19.2544,VALID,71,VALID,0.516959,
2004-11-01, 03:44:00,VALID,914.602,VALID,0,VALID,100,VALID,0,VALID,19.2516,VALID,100,VALID,0.506904,
2004-11-01, 03:45:00,VALID,914.602,VALID,0,VALID,100,VALID,0,VALID,19.2521,VALID,131,VALID,0.616806,
2004-11-01, 03:46:00,VALID,914.613,VALID,0,VALID,100,VALID,-0.0339617,VALID,19.269,VALID,143,VALID,0.897294,
2004-11-01, 03:47:00,VALID,914.631,VALID,0,VALID,100,VALID,-0.0339617,VALID,19.2856,VALID,143,VALID,0.833757,